• In Belarus
  • List of Countries
  • For 7 days
  • Water Temperature
  • Weather Map
  • Weather Widgets
  • user-avatar
    Login

    Hourly Weather Mendoza

    Today, 25 August, Sunday

    Time Temperature Precipitation Wind Pressure Humidity
    00:00 +14°C° 0 mm 1 mps 697 mmHg 54%
    01:00 +14°C° 0 mm 1 mps 697 mmHg 57%
    02:00 +14°C° 0 mm 1 mps 697 mmHg 56%
    03:00 +14°C° 0 mm 1 mps 697 mmHg 55%
    04:00 +14°C° 0 mm 2 mps 697 mmHg 54%
    05:00 +14°C° 0 mm 2 mps 697 mmHg 53%
    06:00 +14°C° 0 mm 2 mps 698 mmHg 52%
    07:00 +16°C° 0 mm 2 mps 698 mmHg 49%
    08:00 +17°C° 0 mm 2 mps 698 mmHg 45%
    09:00 +19°C° 0 mm 3 mps 699 mmHg 40%
    10:00 +21°C° 0 mm 3 mps 699 mmHg 35%
    11:00 +22°C° 0 mm 3 mps 699 mmHg 34%
    12:00 +22°C° 0 mm 3 mps 698 mmHg 32%
    13:00 +24°C° 0 mm 3 mps 698 mmHg 31%
    14:00 +24°C° 0 mm 3 mps 698 mmHg 31%
    15:00 +24°C° 0 mm 3 mps 698 mmHg 32%
    16:00 +24°C° 0 mm 3 mps 698 mmHg 32%
    17:00 +21°C° 0 mm 3 mps 699 mmHg 36%
    18:00 +20°C° 0 mm 2 mps 699 mmHg 41%
    19:00 +18°C° 0 mm 2 mps 699 mmHg 45%
    20:00 +18°C° 0 mm 2 mps 699 mmHg 46%
    21:00 +17°C° 0 mm 2 mps 699 mmHg 47%
    22:00 +16°C° 0 mm 2 mps 699 mmHg 48%
    23:00 +16°C° 0 mm 2 mps 699 mmHg 48%

    Tomorrow, 26 August, Monday

    Time Temperature Precipitation Wind Pressure Humidity
    00:00 +15°C° 0 mm 2 mps 699 mmHg 49%
    01:00 +14°C° 0 mm 1 mps 698 mmHg 49%
    02:00 +14°C° 0 mm 1 mps 698 mmHg 49%
    03:00 +13°C° 0 mm 1 mps 698 mmHg 49%
    04:00 +13°C° 0 mm 1 mps 697 mmHg 50%
    05:00 +14°C° 0 mm 1 mps 698 mmHg 48%
    06:00 +14°C° 0 mm 1 mps 698 mmHg 46%
    07:00 +15°C° 0 mm 1 mps 698 mmHg 45%
    08:00 +18°C° 0 mm 1 mps 698 mmHg 40%
    09:00 +20°C° 0 mm 1 mps 699 mmHg 36%
    10:00 +22°C° 0 mm 1 mps 699 mmHg 32%
    11:00 +23°C° 0 mm 1 mps 698 mmHg 30%
    12:00 +24°C° 0 mm 1 mps 698 mmHg 27%
    13:00 +25°C° 0 mm 1 mps 698 mmHg 25%
    14:00 +25°C° 0 mm 1 mps 698 mmHg 24%
    15:00 +26°C° 0 mm 2 mps 698 mmHg 23%
    16:00 +26°C° 0 mm 2 mps 698 mmHg 23%
    17:00 +24°C° 0 mm 2 mps 699 mmHg 26%
    18:00 +23°C° 0 mm 2 mps 699 mmHg 29%
    19:00 +20°C° 0 mm 2 mps 699 mmHg 33%
    20:00 +20°C° 0 mm 2 mps 700 mmHg 34%
    21:00 +20°C° 0 mm 2 mps 700 mmHg 34%
    22:00 +19°C° 0 mm 3 mps 701 mmHg 35%
    23:00 +18°C° 0 mm 3 mps 701 mmHg 41%

    Day after tomorrow, 27 August, Tuesday

    Time Temperature Precipitation Wind Pressure Humidity
    00:00 +17°C° 0 mm 4 mps 700 mmHg 47%
    01:00 +15°C° 0 mm 4 mps 700 mmHg 52%
    02:00 +14°C° 0 mm 4 mps 700 mmHg 53%
    03:00 +14°C° 0 mm 3 mps 700 mmHg 55%
    04:00 +13°C° 0 mm 3 mps 700 mmHg 56%
    05:00 +14°C° 0 mm 2 mps 700 mmHg 56%
    06:00 +15°C° 0 mm 2 mps 700 mmHg 55%
    07:00 +15°C° 0 mm 1 mps 701 mmHg 55%
    08:00 +16°C° 0 mm 1 mps 701 mmHg 51%
    09:00 +19°C° 0 mm 1 mps 701 mmHg 47%
    10:00 +19°C° 0 mm 2 mps 701 mmHg 43%
    11:00 +20°C° 0 mm 2 mps 700 mmHg 40%
    12:00 +23°C° 0 mm 2 mps 700 mmHg 38%
    13:00 +24°C° 0 mm 2 mps 699 mmHg 35%
    14:00 +24°C° 0 mm 2 mps 699 mmHg 35%
    15:00 +24°C° 0 mm 2 mps 699 mmHg 35%
    16:00 +24°C° 0 mm 2 mps 698 mmHg 35%
    17:00 +23°C° 0 mm 2 mps 698 mmHg 37%
    18:00 +21°C° 0 mm 2 mps 698 mmHg 40%
    19:00 +20°C° 0 mm 2 mps 698 mmHg 43%
    20:00 +19°C° 0 mm 2 mps 698 mmHg 43%
    21:00 +19°C° 0 mm 1 mps 697 mmHg 44%
    22:00 +19°C° 0 mm 1 mps 697 mmHg 44%
    23:00 +18°C° 0 mm 1 mps 696 mmHg 45%

    28 August, Wednesday

    Time Temperature Precipitation Wind Pressure Humidity
    00:00 +16°C° 0 mm 1 mps 696 mmHg 46%
    01:00 +16°C° 0 mm 1 mps 695 mmHg 48%
    02:00 +16°C° 0 mm 1 mps 695 mmHg 48%
    03:00 +15°C° 0 mm 1 mps 695 mmHg 49%
    04:00 +15°C° 0 mm 1 mps 694 mmHg 50%
    05:00 +16°C° 0 mm 1 mps 695 mmHg 47%
    06:00 +18°C° 0 mm 1 mps 695 mmHg 43%
    07:00 +19°C° 0 mm 1 mps 696 mmHg 40%
    08:00 +21°C° 0 mm 1 mps 696 mmHg 35%
    09:00 +24°C° 0 mm 1 mps 696 mmHg 30%
    10:00 +26°C° 0 mm 1 mps 696 mmHg 25%
    11:00 +27°C° 0 mm 1 mps 696 mmHg 22%
    12:00 +29°C° 0 mm 1 mps 696 mmHg 19%
    13:00 +30°C° 0 mm 1 mps 695 mmHg 15%
    14:00 +30°C° 0 mm 1 mps 695 mmHg 14%
    15:00 +31°C° 0 mm 1 mps 695 mmHg 13%
    16:00 +31°C° 0 mm 1 mps 695 mmHg 13%
    17:00 +28°C° 0 mm 1 mps 695 mmHg 15%
    18:00 +26°C° 0 mm 1 mps 695 mmHg 17%
    19:00 +24°C° 0 mm 2 mps 695 mmHg 20%
    20:00 +23°C° 0 mm 2 mps 695 mmHg 19%
    21:00 +22°C° 0 mm 3 mps 695 mmHg 18%
    22:00 +22°C° 0 mm 4 mps 696 mmHg 17%
    23:00 +21°C° 0 mm 4 mps 695 mmHg 20%

    29 August, Thursday

    Time Temperature Precipitation Wind Pressure Humidity
    00:00 +20°C° 0 mm 4 mps 695 mmHg 22%
    01:00 +19°C° 0 mm 4 mps 695 mmHg 24%
    02:00 +19°C° 0 mm 4 mps 695 mmHg 26%
    03:00 +18°C° 0 mm 4 mps 695 mmHg 28%
    04:00 +18°C° 0 mm 4 mps 695 mmHg 30%
    05:00 +18°C° 0 mm 4 mps 695 mmHg 33%
    06:00 +18°C° 0 mm 4 mps 695 mmHg 35%
    07:00 +18°C° 0 mm 3 mps 696 mmHg 37%
    08:00 +19°C° 0 mm 4 mps 696 mmHg 36%
    09:00 +21°C° 0 mm 5 mps 696 mmHg 34%
    10:00 +22°C° 0 mm 6 mps 696 mmHg 32%
    11:00 +23°C° 0 mm 6 mps 696 mmHg 32%
    12:00 +23°C° 0 mm 6 mps 696 mmHg 31%
    13:00 +23°C° 0 mm 7 mps 696 mmHg 31%
    14:00 +22°C° 0 mm 6 mps 696 mmHg 34%
    15:00 +21°C° 0 mm 6 mps 697 mmHg 37%
    16:00 +20°C° 0 mm 6 mps 697 mmHg 40%
    17:00 +17°C° 0 mm 5 mps 697 mmHg 44%
    18:00 +17°C° 0 mm 4 mps 697 mmHg 48%
    19:00 +15°C° 0 mm 2 mps 698 mmHg 52%
    20:00 +14°C° 0 mm 2 mps 698 mmHg 56%
    21:00 +13°C° 0 mm 2 mps 698 mmHg 61%
    22:00 +12°C° 0 mm 2 mps 698 mmHg 66%
    23:00 +12°C° 0 mm 2 mps 698 mmHg 66%

    30 August, Friday

    Time Temperature Precipitation Wind Pressure Humidity
    00:00 +13°C° 0 mm 2 mps 697 mmHg 65%
    01:00 +13°C° 0 mm 2 mps 697 mmHg 65%
    02:00 +13°C° 0 mm 2 mps 697 mmHg 64%
    03:00 +13°C° 0 mm 2 mps 697 mmHg 64%
    04:00 +13°C° 0 mm 2 mps 697 mmHg 63%
    05:00 +12°C° 0 mm 2 mps 697 mmHg 61%
    06:00 +11°C° 0 mm 3 mps 697 mmHg 59%
    07:00 +11°C° 0 mm 3 mps 697 mmHg 57%
    08:00 +12°C° 0 mm 3 mps 697 mmHg 52%
    09:00 +13°C° 0 mm 3 mps 697 mmHg 46%
    10:00 +13°C° 0 mm 3 mps 697 mmHg 40%
    11:00 +14°C° 0 mm 3 mps 696 mmHg 37%
    12:00 +15°C° 0 mm 4 mps 696 mmHg 34%
    13:00 +17°C° 0 mm 4 mps 696 mmHg 31%
    14:00 +17°C° 0 mm 4 mps 696 mmHg 31%
    15:00 +17°C° 0 mm 4 mps 696 mmHg 30%
    16:00 +17°C° 0 mm 4 mps 695 mmHg 29%
    17:00 +15°C° 0 mm 4 mps 696 mmHg 30%
    18:00 +14°C° 0 mm 3 mps 697 mmHg 31%
    19:00 +13°C° 0 mm 3 mps 697 mmHg 32%
    20:00 +12°C° 0 mm 3 mps 698 mmHg 33%
    21:00 +12°C° 0 mm 3 mps 698 mmHg 33%
    22:00 +11°C° 0 mm 3 mps 699 mmHg 34%
    23:00 +10°C° 0 mm 3 mps 699 mmHg 35%
    Show more